Regional Weather Roundup
Issued by NWS

Home | Current Version | Previous Version | Text Only | Print | Product List | Glossary Off
Versions: 1 2 3 4 5 6 7 8 9 10 11 12 13 14 15 16 17 18 19 20 21 22 23 24 25 26 27 28 29 30 31 32 33 34 35 36 37 38 39 40 41 42 43 44 45 46 47 48 49 50

000
ASUS43 KIND 201359
RWRIN

WEATHER ROUNDUP FOR INDIANA
NATIONAL WEATHER SERVICE INDIANAPOLIS IN
900 AM EST TUE FEB 20 2018

NOTE: "FAIR" INDICATES FEW OR NO CLOUDS BELOW 12,000 FEET WITH NO
SIGNIFICANT WEATHER AND/OR OBSTRUCTIONS TO VISIBILITY.

* - STATION DOES NOT REPORT WEATHER SUCH AS PRECIPITATION OR FOG.

+ - STATION NOT QUALITY CONTROLLED BY THE NATIONAL WEATHER SERVICE.
    USE DATA WITH CAUTION...ESPECIALLY DEWPOINT AND RELATIVE
    HUMIDITY OBSERVATIONS.

INZ001>003-010>013-019-020-201500-
NORTHWEST INDIANA

CITY           SKY/WX    TMP DP  RH WIND       PRES   REMARKS
GARY /AIRPORT/ LGT RAIN  63  61  94 SW14G30   29.90R
MONTICELLO +   LGT RAIN  63  60  90 SW15G22   29.94R
RENSSELAER +   RAIN      61  55  82 SW16      29.94R
VALPARAISO     RAIN      62  60  93 SW15G25   29.91R FOG

$$

LMZ046-743>745-201500-
SOUTHERN LAKE MICHIGAN

STATION/POSITION TIME  TEMP    WIND        PRES    WAVE
                       AIR SEA DIR/SP/G            HT
                 (UTC) (F)     (DEG/KT/KT) (MB)    (FT)
BURNS HARBOR     1340   60     220/ 19/ 25 1012.5R
MICHIGAN CITY    1330   60     190/ 25/ 32   N/A

$$

INZ004-005-014>016-021>024-201500-
NORTH CENTRAL INDIANA

CITY           SKY/WX    TMP DP  RH WIND       PRES   REMARKS
GOSHEN         RAIN      59  58  96 S14       29.94R FOG
PERU/GRISSOM   CLOUDY    64  64 100 SW17G29   29.96R
SOUTH BEND     HVY RAIN  60  58  92 S16       29.92R FOG
WARSAW +       HVY RAIN  57  57 100 S6        29.95S

$$

INZ006>009-017-018-025>027-201500-
NORTHEAST INDIANA

CITY           SKY/WX    TMP DP  RH WIND       PRES   REMARKS
AUBURN +       RAIN      59  57  94 S8        30.00S
FORT WAYNE     CLOUDY    61  57  87 SW9       30.00R
KENDALLVILLE + LGT RAIN  59  58  98 S14G20    29.98R

$$

INZ028-029-035-036-043>045-051>053-201500-
WEST CENTRAL INDIANA

CITY           SKY/WX    TMP DP  RH WIND       PRES   REMARKS
GREENCASTLE +  CLOUDY    64  57  77 SW13G22   30.02R
LAFAYETTE      CLOUDY    65  59  81 SW10G22   29.95R
TERRE HAUTE    CLOUDY    66  59  78 S20G36    30.00R

$$

INZ030>032-037>040-046>048-054>057-064-065-201500-
CENTRAL INDIANA

CITY           SKY/WX    TMP DP  RH WIND       PRES   REMARKS
ANDERSON       MOSUNNY   64  57  77 S20G26    30.03
GREENWOOD *+   PTSUNNY   64 -44   1 S18G26    30.04S
INDIANAPOLIS   CLOUDY    67  59  75 S22G30    30.02R
-EAGLE CREEK   CLOUDY    68  58  70 S18G30    30.00S
KOKOMO +       CLOUDY    64  59  83 S24       29.99R
MT COMFORT *+  CLOUDY    63  61  94 S12       30.04R
SHELBYVILLE    PTSUNNY   65  56  72 S21       30.04S

$$

INZ033-034-041-042-049-050-058-059-201500-
EAST CENTRAL INDIANA

CITY           SKY/WX    TMP DP  RH WIND       PRES   REMARKS
MUNCIE         FAIR      66  57  72 S17G30    30.01S
RICHMOND +     FAIR      59  57  94 S16       30.10S

$$

INZ060-061-067>069-081>083-085>088-201500-
SOUTHWEST INDIANA

CITY           SKY/WX    TMP DP  RH WIND       PRES   REMARKS
EVANSVILLE     PTSUNNY   67  57  70 S20G29    30.09R
HUNTINGBURG +  PTSUNNY   67  58  72 S22G31    30.10S

$$

INZ062-063-066-070>080-084-089>092-201500-
SOUTH CENTRAL AND SOUTHEAST INDIANA

CITY           SKY/WX    TMP DP  RH WIND       PRES   REMARKS
BLOOMINGTON    FAIR      68  58  70 S20G30    30.05R
FRENCH LICK *+ CLOUDY    66  52  59 S13G24    30.11R
SEYMOUR +      FAIR      68  55  64 S16       30.10R

$$




USA.gov is the U.S. government's official web portal to all federal, state and local government web resources and services.